NSIGHT (42726 NORAD) Tracking and Keplerian Element Data

This shows tracking and keplerian element data for the satellite.

Feedback or suggestion? Click here.




ElementValue
Catalog42726
NameNSIGHT
Epoch Orbit10406
Epoch Day82.10572765
Epoch Year2019
RAAN35.5792
Inclination51.6387
Eccentricity0.0004518
Argument of Perigee182.3318
Mean Anonmoly177.7659
Mean Motion15.67812721
Decay Rate0.00018234
L11 42726U 98067MF 19082.10572765 .00018234 00000-0 16719-3 0 9999
L22 42726 51.6387 35.5792 0004518 182.3318 177.7659 15.67812721104061

Live tracking and technical data element details for NSIGHT (NORAD 42726). NSIGHT can be tracked NOW for your location showing map with azimuth and elevation plus other details from your city location.

Track the satellite on the map from your city or location and see movement details for azimuth, elevation, latitude, longitude, range, height, and movement on the map or in text.







IsCatalogInMostPopularTable: catalog: 42726, numindb: 209
Update: records affected: 1



GetName: 42726 NSIGHT

Hit Count: updated at: Sun, 24 Mar 2019 09:38:32 GMT